Time,TemperatureF,DewpointF,PressureIn,WindDirection,WindDirectionDegrees,WindSpeedMPH,WindSpeedGustMPH,Humidity,HourlyPrecipIn,Conditions,Clouds,dailyrainin,SoftwareType,DateUTC
2013-04-14 00:08:00,53.5,52.0,29.86,West,265,0.0,0.0,94,0.00,,,0.00,weatherlink.com 1.10,2013-04-14 07:08:00,
2013-04-14 00:22:00,53.5,52.0,29.87,WNW,293,1.0,2.0,94,0.00,,,0.00,weatherlink.com 1.10,2013-04-14 07:22:00,
2013-04-14 00:37:00,53.5,52.0,29.87,West,260,0.0,1.0,94,0.00,,,0.00,weatherlink.com 1.10,2013-04-14 07:37:00,
2013-04-14 00:53:00,53.6,52.0,29.87,West,267,0.0,3.0,94,0.00,,,0.00,weatherlink.com 1.10,2013-04-14 07:53:00,
2013-04-14 01:08:00,53.5,52.0,29.86,NW,307,0.0,3.0,94,0.00,,,0.00,weatherlink.com 1.10,2013-04-14 08:08:00,
2013-04-14 01:23:00,53.4,52.0,29.86,West,266,0.0,1.0,94,0.00,,,0.00,weatherlink.com 1.10,2013-04-14 08:23:00,
2013-04-14 01:38:00,53.4,52.0,29.86,West,259,0.0,0.0,94,0.00,,,0.00,weatherlink.com 1.10,2013-04-14 08:38:00,
2013-04-14 01:53:00,53.4,52.0,29.86,West,262,0.0,0.0,94,0.00,,,0.00,weatherlink.com 1.10,2013-04-14 08:53:00,
2013-04-14 02:08:00,53.3,52.0,29.85,West,264,0.0,0.0,94,0.00,,,0.00,weatherlink.com 1.10,2013-04-14 09:08:00,
2013-04-14 02:23:00,53.5,52.0,29.85,West,262,0.0,0.0,94,0.00,,,0.00,weatherlink.com 1.10,2013-04-14 09:23:00,
2013-04-14 02:38:00,53.6,52.0,29.84,West,263,0.0,0.0,94,0.00,,,0.00,weatherlink.com 1.10,2013-04-14 09:38:00,
2013-04-14 02:53:00,53.5,52.0,29.84,West,269,0.0,0.0,94,0.00,,,0.00,weatherlink.com 1.10,2013-04-14 09:53:00,
2013-04-14 03:08:00,53.4,52.0,29.84,West,266,0.0,0.0,94,0.00,,,0.00,weatherlink.com 1.10,2013-04-14 10:08:00,
2013-04-14 03:23:00,53.1,51.0,29.84,ENE,72,0.0,2.0,93,0.00,,,0.00,weatherlink.com 1.10,2013-04-14 10:23:00,
2013-04-14 03:38:00,53.4,51.0,29.84,ESE,122,0.0,0.0,92,0.00,,,0.00,weatherlink.com 1.10,2013-04-14 10:38:00,
2013-04-14 03:53:00,53.6,51.0,29.84,SW,217,0.0,0.0,91,0.00,,,0.00,weatherlink.com 1.10,2013-04-14 10:53:00,
2013-04-14 04:08:00,53.7,51.0,29.84,SSW,207,0.0,1.0,90,0.00,,,0.00,weatherlink.com 1.10,2013-04-14 11:08:00,
2013-04-14 04:23:00,53.7,51.0,29.84,SSW,207,0.0,0.0,90,0.00,,,0.00,weatherlink.com 1.10,2013-04-14 11:23:00,
2013-04-14 04:38:00,53.7,51.0,29.83,SSW,207,0.0,0.0,89,0.00,,,0.00,weatherlink.com 1.10,2013-04-14 11:38:00,
2013-04-14 04:53:00,53.8,51.0,29.83,SSW,207,0.0,0.0,89,0.00,,,0.00,weatherlink.com 1.10,2013-04-14 11:53:00,
2013-04-14 05:08:00,53.8,50.0,29.83,SSW,207,0.0,0.0,88,0.00,,,0.00,weatherlink.com 1.10,2013-04-14 12:08:00,
2013-04-14 05:23:00,54.0,50.0,29.83,SSW,205,0.0,0.0,87,0.00,,,0.00,weatherlink.com 1.10,2013-04-14 12:23:00,
2013-04-14 05:38:00,53.9,50.0,29.83,SSW,205,0.0,0.0,86,0.00,,,0.00,weatherlink.com 1.10,2013-04-14 12:38:00,
2013-04-14 05:53:00,54.2,50.0,29.83,SE,143,0.0,0.0,85,0.00,,,0.00,weatherlink.com 1.10,2013-04-14 12:53:00,
2013-04-14 06:08:00,54.3,51.0,29.83,WSW,249,0.0,0.0,87,0.00,,,0.00,weatherlink.com 1.10,2013-04-14 13:08:00,
2013-04-14 06:23:00,54.1,51.0,29.83,West,262,0.0,0.0,89,0.00,,,0.00,weatherlink.com 1.10,2013-04-14 13:23:00,
2013-04-14 06:38:00,53.8,51.0,29.83,West,275,1.0,1.0,90,0.00,,,0.00,weatherlink.com 1.10,2013-04-14 13:38:00,
2013-04-14 06:53:00,53.6,51.0,29.84,West,274,0.0,0.0,91,0.00,,,0.00,weatherlink.com 1.10,2013-04-14 13:53:00,
2013-04-14 07:08:00,53.7,51.0,29.84,West,265,0.0,0.0,91,0.00,,,0.00,weatherlink.com 1.10,2013-04-14 14:08:00,
2013-04-14 07:23:00,53.9,51.0,29.84,West,276,0.0,0.0,90,0.00,,,0.00,weatherlink.com 1.10,2013-04-14 14:23:00,
2013-04-14 07:38:00,53.9,51.0,29.84,WSW,248,0.0,0.0,90,0.00,,,0.00,weatherlink.com 1.10,2013-04-14 14:38:00,
2013-04-14 07:53:00,53.9,51.0,29.84,WNW,297,2.0,3.0,91,0.00,,,0.00,weatherlink.com 1.10,2013-04-14 14:53:00,
2013-04-14 08:08:00,53.9,51.0,29.85,West,270,2.0,3.0,90,0.00,,,0.00,weatherlink.com 1.10,2013-04-14 15:08:00,
2013-04-14 08:23:00,54.1,51.0,29.85,WNW,287,3.0,3.0,90,0.00,,,0.00,weatherlink.com 1.10,2013-04-14 15:23:00,
2013-04-14 08:38:00,54.2,51.0,29.86,WSW,255,2.0,4.0,90,0.00,,,0.00,weatherlink.com 1.10,2013-04-14 15:38:00,
2013-04-14 08:53:00,54.4,52.0,29.85,West,276,0.0,3.0,90,0.00,,,0.00,weatherlink.com 1.10,2013-04-14 15:53:00,
2013-04-14 09:08:00,54.6,51.0,29.85,West,263,0.0,4.0,88,0.00,,,0.00,weatherlink.com 1.10,2013-04-14 16:08:00,
2013-04-14 09:23:00,55.2,51.0,29.86,WNW,290,2.0,4.0,85,0.00,,,0.00,weatherlink.com 1.10,2013-04-14 16:23:00,
2013-04-14 09:53:00,55.5,51.0,29.86,WNW,292,1.0,4.0,86,0.00,,,0.00,weatherlink.com 1.10,2013-04-14 16:53:00,
2013-04-14 10:08:00,55.7,52.0,29.87,West,279,1.0,4.0,86,0.00,,,0.00,weatherlink.com 1.10,2013-04-14 17:08:00,
2013-04-14 10:23:00,55.9,51.0,29.87,WNW,288,1.0,2.0,84,0.00,,,0.00,weatherlink.com 1.10,2013-04-14 17:23:00,
2013-04-14 10:38:00,56.2,51.0,29.87,WNW,290,3.0,5.0,82,0.00,,,0.00,weatherlink.com 1.10,2013-04-14 17:38:00,
2013-04-14 10:53:00,56.8,51.0,29.87,West,266,2.0,3.0,80,0.00,,,0.00,weatherlink.com 1.10,2013-04-14 17:53:00,
2013-04-14 11:08:00,57.2,51.0,29.87,North,354,0.0,4.0,79,0.00,,,0.00,weatherlink.com 1.10,2013-04-14 18:08:00,
2013-04-14 11:23:00,58.0,51.0,29.86,West,274,1.0,4.0,78,0.00,,,0.00,weatherlink.com 1.10,2013-04-14 18:23:00,
2013-04-14 11:38:00,58.5,51.0,29.86,WSW,242,2.0,5.0,76,0.00,,,0.00,weatherlink.com 1.10,2013-04-14 18:38:00,
2013-04-14 11:53:00,58.9,51.0,29.86,WNW,288,2.0,6.0,75,0.00,,,0.00,weatherlink.com 1.10,2013-04-14 18:53:00,
2013-04-14 12:08:00,59.2,52.0,29.86,WNW,290,0.0,7.0,77,0.00,,,0.00,weatherlink.com 1.10,2013-04-14 19:08:00,
2013-04-14 12:23:00,59.2,52.0,29.85,WNW,301,3.0,6.0,76,0.00,,,0.00,weatherlink.com 1.10,2013-04-14 19:23:00,
2013-04-14 12:38:00,59.3,52.0,29.85,WSW,245,1.0,8.0,76,0.00,,,0.00,weatherlink.com 1.10,2013-04-14 19:38:00,
2013-04-14 12:53:00,59.8,52.0,29.85,West,281,1.0,6.0,75,0.00,,,0.00,weatherlink.com 1.10,2013-04-14 19:53:00,
2013-04-14 13:08:00,59.9,52.0,29.84,WNW,286,1.0,7.0,75,0.00,,,0.00,weatherlink.com 1.10,2013-04-14 20:08:00,
2013-04-14 13:23:00,60.4,52.0,29.84,WSW,253,0.0,6.0,75,0.00,,,0.00,weatherlink.com 1.10,2013-04-14 20:23:00,
2013-04-14 13:39:00,60.0,52.0,29.84,WNW,295,2.0,9.0,75,0.00,,,0.00,weatherlink.com 1.10,2013-04-14 20:39:00,
2013-04-14 13:54:00,60.5,53.0,29.84,WSW,256,1.0,6.0,75,0.00,,,0.00,weatherlink.com 1.10,2013-04-14 20:54:00,
2013-04-14 14:09:00,60.4,52.0,29.84,South,186,4.0,8.0,75,0.00,,,0.00,weatherlink.com 1.10,2013-04-14 21:09:00,
2013-04-14 14:24:00,61.2,53.0,29.83,West,265,1.0,8.0,74,0.00,,,0.00,weatherlink.com 1.10,2013-04-14 21:24:00,
2013-04-14 14:39:00,61.0,53.0,29.83,WSW,252,8.0,12.0,74,0.00,,,0.00,weatherlink.com 1.10,2013-04-14 21:39:00,
2013-04-14 14:54:00,60.7,52.0,29.82,WSW,239,4.0,10.0,74,0.00,,,0.00,weatherlink.com 1.10,2013-04-14 21:54:00,
2013-04-14 15:09:00,61.2,53.0,29.82,WNW,302,1.0,6.0,74,0.00,,,0.00,weatherlink.com 1.10,2013-04-14 22:09:00,
2013-04-14 15:24:00,61.2,53.0,29.82,WSW,252,6.0,10.0,74,0.00,,,0.00,weatherlink.com 1.10,2013-04-14 22:24:00,
2013-04-14 15:39:00,60.9,53.0,29.82,SW,232,6.0,8.0,74,0.00,,,0.00,weatherlink.com 1.10,2013-04-14 22:39:00,
2013-04-14 15:54:00,60.3,52.0,29.82,WSW,250,6.0,10.0,75,0.00,,,0.00,weatherlink.com 1.10,2013-04-14 22:54:00,
2013-04-14 16:09:00,60.4,52.0,29.81,West,274,1.0,8.0,74,0.00,,,0.00,weatherlink.com 1.10,2013-04-14 23:09:00,
2013-04-14 16:25:00,59.9,51.0,29.81,West,270,6.0,9.0,73,0.00,,,0.00,weatherlink.com 1.10,2013-04-14 23:25:00,
2013-04-14 16:39:00,59.7,51.0,29.81,SW,224,4.0,10.0,74,0.00,,,0.00,weatherlink.com 1.10,2013-04-14 23:39:00,
2013-04-14 16:54:00,59.3,51.0,29.82,West,281,3.0,9.0,75,0.00,,,0.00,weatherlink.com 1.10,2013-04-14 23:54:00,
2013-04-14 17:09:00,58.6,51.0,29.82,West,266,2.0,9.0,75,0.00,,,0.00,weatherlink.com 1.10,2013-04-15 00:09:00,
2013-04-14 17:24:00,58.4,51.0,29.82,WNW,293,4.0,9.0,75,0.00,,,0.00,weatherlink.com 1.10,2013-04-15 00:24:00,
2013-04-14 17:39:00,58.3,50.0,29.82,NW,315,6.0,10.0,75,0.00,,,0.00,weatherlink.com 1.10,2013-04-15 00:39:00,
2013-04-14 17:54:00,57.8,50.0,29.82,West,269,4.0,7.0,76,0.00,,,0.00,weatherlink.com 1.10,2013-04-15 00:54:00,
2013-04-14 18:09:00,57.7,50.0,29.82,WSW,240,4.0,6.0,76,0.00,,,0.00,weatherlink.com 1.10,2013-04-15 01:09:00,
2013-04-14 18:24:00,57.5,50.0,29.83,West,263,1.0,6.0,76,0.00,,,0.00,weatherlink.com 1.10,2013-04-15 01:24:00,
2013-04-14 18:39:00,57.1,50.0,29.83,West,276,2.0,6.0,77,0.00,,,0.00,weatherlink.com 1.10,2013-04-15 01:39:00,
2013-04-14 18:54:00,56.8,50.0,29.83,WNW,295,2.0,6.0,78,0.00,,,0.00,weatherlink.com 1.10,2013-04-15 01:54:00,
2013-04-14 19:09:00,56.7,50.0,29.83,WSW,242,3.0,5.0,78,0.00,,,0.00,weatherlink.com 1.10,2013-04-15 02:09:00,
2013-04-14 19:24:00,56.4,50.0,29.83,West,269,3.0,5.0,79,0.00,,,0.00,weatherlink.com 1.10,2013-04-15 02:24:00,
2013-04-14 19:39:00,56.1,50.0,29.84,West,270,1.0,4.0,80,0.00,,,0.00,weatherlink.com 1.10,2013-04-15 02:39:00,
2013-04-14 19:54:00,55.7,50.0,29.84,West,278,2.0,5.0,81,0.00,,,0.00,weatherlink.com 1.10,2013-04-15 02:54:00,
2013-04-14 20:09:00,55.5,50.0,29.85,WSW,255,2.0,4.0,82,0.00,,,0.00,weatherlink.com 1.10,2013-04-15 03:09:00,
2013-04-14 20:24:00,55.2,50.0,29.85,WSW,250,1.0,4.0,83,0.00,,,0.00,weatherlink.com 1.10,2013-04-15 03:24:00,
2013-04-14 20:39:00,55.0,50.0,29.85,West,271,3.0,5.0,84,0.00,,,0.00,weatherlink.com 1.10,2013-04-15 03:39:00,
2013-04-14 20:54:00,54.9,50.0,29.86,West,274,3.0,4.0,84,0.00,,,0.00,weatherlink.com 1.10,2013-04-15 03:54:00,
2013-04-14 21:09:00,54.8,50.0,29.86,WNW,290,2.0,4.0,84,0.00,,,0.00,weatherlink.com 1.10,2013-04-15 04:09:00,
2013-04-14 21:24:00,54.8,50.0,29.86,WSW,245,2.0,3.0,84,0.00,,,0.00,weatherlink.com 1.10,2013-04-15 04:24:00,
2013-04-14 21:39:00,54.7,50.0,29.86,WSW,248,2.0,3.0,85,0.00,,,0.00,weatherlink.com 1.10,2013-04-15 04:39:00,
2013-04-14 21:54:00,54.6,50.0,29.86,West,262,0.0,1.0,85,0.00,,,0.00,weatherlink.com 1.10,2013-04-15 04:54:00,
2013-04-14 22:09:00,54.5,50.0,29.86,WSW,249,1.0,2.0,85,0.00,,,0.00,weatherlink.com 1.10,2013-04-15 05:09:00,
2013-04-14 22:24:00,54.5,50.0,29.86,WSW,249,0.0,0.0,85,0.00,,,0.00,weatherlink.com 1.10,2013-04-15 05:24:00,
2013-04-14 22:39:00,54.3,50.0,29.86,WSW,249,0.0,0.0,84,0.00,,,0.00,weatherlink.com 1.10,2013-04-15 05:39:00,
2013-04-14 22:54:00,54.4,50.0,29.86,WSW,249,0.0,0.0,84,0.00,,,0.00,weatherlink.com 1.10,2013-04-15 05:54:00,
2013-04-14 23:09:00,54.5,50.0,29.86,WSW,249,0.0,1.0,84,0.00,,,0.00,weatherlink.com 1.10,2013-04-15 06:09:00,
2013-04-14 23:24:00,54.4,50.0,29.86,WSW,249,0.0,0.0,84,0.00,,,0.00,weatherlink.com 1.10,2013-04-15 06:24:00,
2013-04-14 23:39:00,54.3,50.0,29.85,WSW,249,0.0,0.0,84,0.00,,,0.00,weatherlink.com 1.10,2013-04-15 06:39:00,
2013-04-14 23:54:00,54.1,49.0,29.85,WSW,249,0.0,0.0,84,0.00,,,0.00,weatherlink.com 1.10,2013-04-15 06:54:00,